Flag for Afghanistan Weather past 2 weeks in Jalalabad, Afghanistan

Now
82 °F

Warm.


Feels Like: 92 °F
Forecast: 78 / 95 °F
Wind: N/A

Location: Peshawar Airport

Current Time: Jul 26, 2014 at 10:14:09 PM

Latest Report: Jul 26, 2014 at 9:30 PM


Visibility: N/A

Pressure: 29.68 "Hg

Humidity: 89%

Dew point: 79 °F

Location of JalalabadLocation

Historic Weather in Jalalabad — Graph

°F

Jalalabad temperature yesterday

Maximum temperature yesterday: 84 °F (at 12:30 AM)
Minimum temperature yesterday: 79 °F (at 5:30 PM)
Average temperature yesterday: 81 °F

Past Weeks' High & Low Weather Summary

 TemperatureHumidityPressure
High106 °F (Jul 13, 1:30 PM)94% (Jul 26, 10:30 AM)29.71 "Hg (Jul 26, 10:30 AM)
Low77 °F (Jul 17, 8:30 AM)33% (Jul 13, 12:30 PM)29.33 "Hg (Jul 15, 5:30 PM)
Average91 °F59%29.47 "Hg
* Reported Jul 11 8:30 PM — Jul 26 8:30 PM, Jalalabad, Weather by CustomWeather, © 2014

Note: Actual official high and low records may vary slightly from our data, if they occured in-between our weather recording intervals... More about our weather records

Advertising

Jalalabad weather history for previous 24 hours

 ConditionsComfort  
Time TempWeatherWind HumidityBarometerVisibility
8:30 PM
Jul 26
82 °FWarm.N/A89%29.65 "HgN/A
7:30 PM82 °FWarm.N/A89%29.65 "HgN/A
6:30 PM82 °FWarm.N/A89%29.62 "HgN/A
5:30 PM82 °FWarm.N/A89%29.62 "HgN/A
4:30 PM82 °FWarm.N/A89%29.62 "HgN/A
3:30 PM82 °FWarm.N/A89%29.65 "HgN/A
2:30 PM82 °FWarm.N/A89%29.65 "HgN/A
1:30 PM82 °FWarm.N/A89%29.68 "HgN/A
12:30 PM82 °FWarm.N/A89%29.71 "HgN/A
11:30 AM81 °FWarm.N/A94%29.71 "HgN/A
10:30 AM81 °FWarm.N/A94%29.71 "HgN/A
9:30 AM81 °FWarm.N/A89%29.71 "HgN/A
8:40 AM81 °FWarm.N/A89%29.71 "HgN/A
7:30 AM81 °FFog.9 mph84%29.68 "Hg1 mi
6:30 AM79 °FFog.7 mph89%29.68 "Hg1 mi
5:30 AM79 °FFog.9 mph89%29.68 "Hg2 mi
4:30 AM81 °FRain. Partly cloudy.7 mph84%29.65 "Hg2 mi
3:30 AM81 °FFog.7 mph84%29.65 "Hg2 mi
2:30 AM81 °FFog.9 mph84%29.62 "Hg2 mi
1:30 AM81 °FFog.5 mph84%29.62 "Hg2 mi
12:30 AM81 °FThundershowers. Partly cloudy.7 mph84%29.65 "Hg2 mi
11:30 PM
Jul 25
81 °FFog.9 mph84%29.65 "Hg2 mi
10:30 PM81 °FPartly cloudy.12 mph84%29.65 "Hg2 mi
Weather by CustomWeather, © 2014

See weather overviewHow to use our weather pages